{"data":{"norad_id":58435,"epoch":"2026-09-21T22:02:52.903104Z","epoch_age_seconds":119398,"freshness":"FRESH","line1":"1 58435U 23182A   26264.91866786  .00223165  22803-4  39655-3 0  9991","line2":"2 58435  96.6715   7.6925 0002158 212.2054 147.9096 16.01876944163846","mean_motion":16.01876944,"eccentricity":0.0002158,"inclination_deg":96.6715,"raan_deg":7.6925,"arg_perigee_deg":212.2054,"mean_anomaly_deg":147.9096,"bstar":0.00039655,"rev_number":16384,"period_min":89.894545607493,"perigee_km":267.78658447062,"apogee_km":270.65558421983,"semimajor_km":6647.3580843452,"source":"CELESTRAK","updated_at":"2026-09-22T09:00:26.635446Z"}}